sat.trackr.live / text

‹ back to catalog

STARLINK-37085

NORAD 68252 · 2026-054W

PAYLOAD ACTIVE UNKNOWN

§ Identity

Operator
Country
US
Launch date
2026-03-17
Launch site
AFETR
Launch vehicle
Mass (kg)
RCS (m²)

Purposes: comms

External: N2YO · Heavens-Above · Gunter

§ Orbital elements

Epoch: 2026-09-19T22:37:35.613120Z

Period
93.85 min
Inclination
53.1573°
Eccentricity
0.0001586
Mean motion
15.34411489 rev/d
Perigee alt
461.6 km
Apogee alt
463.8 km
Semi-major
6,840.8 km
B*
5.8797e-4
RAAN
104.5774°
Arg perigee
76.8449°
Mean anomaly
283.2731°
Rev number
2,887

§ Raw data

STARLINK-370851 68252U 26054W   26262.94277330  .00019548  00000+0  58797-3 0  99982 68252  53.1573 104.5774 0001586  76.8449 283.2731 15.34411489 28876

JSON: /api/v1/satellites/68252 · /tle

For live sub-satellite position, see the globe view (requires WebGL).

§ Visibility from observer

Set your observer location to see the next 7 days of passes ≥ 10°. The values pass through the URL so the page stays shareable.

No JS? Fill the form by hand. The geolocation button needs JavaScript.